GEC545 EDDF-LFPG

Flight info

Callsign GEC545
Flight time 0h 47m
Altitude 24000
Route SOBRA2L SOBRA Y180 DIK UN857 TOLVU/N0420F230 DCT RAPOR DCT VEDUS
Aircraft B77L/H-SDE1E2E3FGHIJ2J3J4J5M1RWXY/LB1D1

Departure

Time 2026-05-08 21:56
Airport Frankfurt Main Airport (EDDF)

Arrival

Time 2026-05-08 22:43
Airport Charles de Gaulle International Airport (LFPG)
Time Latitude Longitude Altitude Speed Heading
2026-05-08 20:56 50.04059 8.54782 368 ft 0 kts 69°
2026-05-08 20:57 50.04057 8.54772 368 ft 0 kts 69°
2026-05-08 21:20 50.04059 8.54782 367 ft 8 kts 69°
2026-05-08 21:21 50.04057 8.54772 367 ft 0 kts 69°
2026-05-08 21:33 50.04056 8.54767 365 ft 3 kts 69°
2026-05-08 21:33 50.04045 8.54730 367 ft 3 kts 69°
2026-05-08 21:33 50.04038 8.54702 369 ft 3 kts 71°
2026-05-08 21:34 50.04034 8.54664 367 ft 4 kts 112°
2026-05-08 21:34 50.04050 8.54642 367 ft 4 kts 168°
2026-05-08 21:34 50.04073 8.54634 368 ft 1 kts 159°
2026-05-08 21:34 50.04074 8.54634 368 ft 0 kts 159°
2026-05-08 21:39 50.04072 8.54635 365 ft 0 kts 159°
2026-05-08 21:41 50.04070 8.54636 365 ft 2 kts 159°
2026-05-08 21:41 50.04049 8.54649 368 ft 5 kts 159°
2026-05-08 21:41 50.04011 8.54670 369 ft 7 kts 160°
2026-05-08 21:42 50.03956 8.54667 371 ft 9 kts 205°
2026-05-08 21:42 50.03918 8.54590 365 ft 9 kts 242°
2026-05-08 21:42 50.03895 8.54497 371 ft 9 kts 249°
2026-05-08 21:42 50.03869 8.54403 371 ft 9 kts 241°
2026-05-08 21:43 50.03834 8.54315 371 ft 10 kts 238°
2026-05-08 21:43 50.03802 8.54224 368 ft 10 kts 246°
2026-05-08 21:43 50.03777 8.54126 367 ft 10 kts 249°
2026-05-08 21:43 50.03754 8.54028 370 ft 10 kts 250°
2026-05-08 21:44 50.03731 8.53929 368 ft 10 kts 250°
2026-05-08 21:44 50.03707 8.53831 368 ft 10 kts 249°
2026-05-08 21:44 50.03682 8.53730 370 ft 10 kts 250°
2026-05-08 21:44 50.03657 8.53629 365 ft 10 kts 248°
2026-05-08 21:45 50.03632 8.53528 367 ft 10 kts 249°
2026-05-08 21:45 50.03607 8.53427 367 ft 10 kts 250°
2026-05-08 21:45 50.03583 8.53325 370 ft 10 kts 250°
2026-05-08 21:45 50.03558 8.53224 367 ft 10 kts 249°
2026-05-08 21:46 50.03534 8.53123 370 ft 10 kts 250°
2026-05-08 21:46 50.03511 8.53021 368 ft 10 kts 250°
2026-05-08 21:46 50.03486 8.52920 368 ft 10 kts 249°
2026-05-08 21:46 50.03459 8.52820 367 ft 10 kts 246°
2026-05-08 21:47 50.03439 8.52743 369 ft 0 kts 248°
2026-05-08 21:53 50.03433 8.52722 371 ft 7 kts 248°
2026-05-08 21:54 50.03406 8.52646 370 ft 8 kts 230°
2026-05-08 21:54 50.03353 8.52600 367 ft 8 kts 188°
2026-05-08 21:54 50.03351 8.52599 367 ft 0 kts 186°
2026-05-08 21:54 50.03338 8.52598 367 ft 12 kts 184°
2026-05-08 21:55 50.03046 8.52597 362 ft 81 kts 180°
2026-05-08 21:55 50.02238 8.52605 367 ft 148 kts 179°
2026-05-08 21:55 50.01044 8.52618 516 ft 186 kts 179°
2026-05-08 21:56 49.98450 8.52678 2004 ft 181 kts 174°
2026-05-08 21:56 49.97159 8.52760 2555 ft 197 kts 174°
2026-05-08 21:56 49.95705 8.52865 2949 ft 217 kts 175°
2026-05-08 21:56 49.94161 8.52978 3616 ft 226 kts 176°
2026-05-08 21:57 49.92575 8.53097 4368 ft 231 kts 176°
2026-05-08 21:57 49.90970 8.53219 4935 ft 234 kts 177°
2026-05-08 21:57 49.89321 8.53345 4949 ft 241 kts 177°
2026-05-08 21:57 49.87665 8.53456 4980 ft 235 kts 181°
2026-05-08 21:58 49.86040 8.52882 5028 ft 254 kts 202°
2026-05-08 21:58 49.84345 8.51816 5523 ft 266 kts 201°
2026-05-08 21:58 49.82604 8.50812 6498 ft 267 kts 201°
2026-05-08 21:58 49.80852 8.49824 7414 ft 269 kts 201°
2026-05-08 21:59 49.79084 8.48828 8263 ft 272 kts 201°
2026-05-08 21:59 49.77380 8.47568 8975 ft 275 kts 219°
2026-05-08 21:59 49.76216 8.45221 9745 ft 279 kts 248°
2026-05-08 21:59 49.75862 8.42271 10545 ft 285 kts 271°
2026-05-08 22:00 49.76212 8.39161 10857 ft 307 kts 283°
2026-05-08 22:00 49.76783 8.35826 11069 ft 335 kts 284°
2026-05-08 22:00 49.77403 8.32204 11375 ft 359 kts 283°
2026-05-08 22:00 49.78034 8.28395 12107 ft 370 kts 283°
2026-05-08 22:01 49.78658 8.24550 13060 ft 377 kts 283°
2026-05-08 22:01 49.79294 8.20593 14044 ft 382 kts 283°
2026-05-08 22:01 49.79936 8.16575 14963 ft 386 kts 283°
2026-05-08 22:01 49.80583 8.12521 15875 ft 391 kts 283°
2026-05-08 22:02 49.81238 8.08406 16770 ft 396 kts 283°
2026-05-08 22:02 49.81898 8.04246 17679 ft 400 kts 283°
2026-05-08 22:02 49.82346 8.01415 18260 ft 403 kts 283°
2026-05-08 22:02 49.83018 7.97171 19033 ft 408 kts 283°
2026-05-08 22:03 49.83698 7.92872 19804 ft 412 kts 283°
2026-05-08 22:03 49.84383 7.88536 20548 ft 416 kts 283°
2026-05-08 22:03 49.85073 7.84156 21299 ft 421 kts 283°
2026-05-08 22:03 49.85768 7.79726 22039 ft 425 kts 283°
2026-05-08 22:04 49.86470 7.75251 22755 ft 430 kts 283°
2026-05-08 22:04 49.87182 7.70729 23482 ft 434 kts 283°
2026-05-08 22:04 49.87894 7.66157 24042 ft 439 kts 283°
2026-05-08 22:04 49.88605 7.61541 24118 ft 441 kts 283°
2026-05-08 22:05 49.89313 7.56922 24130 ft 441 kts 283°
2026-05-08 22:05 49.90018 7.52302 24128 ft 440 kts 283°
2026-05-08 22:05 49.90724 7.47675 24126 ft 440 kts 283°
2026-05-08 22:05 49.91426 7.43058 24130 ft 440 kts 283°
2026-05-08 22:06 49.92127 7.38441 24132 ft 440 kts 283°
2026-05-08 22:06 49.92826 7.33823 24132 ft 440 kts 283°
2026-05-08 22:06 49.93524 7.29198 24130 ft 440 kts 283°
2026-05-08 22:06 49.94220 7.24575 24130 ft 440 kts 283°
2026-05-08 22:07 49.94904 7.20016 24132 ft 440 kts 283°
2026-05-08 22:07 49.95606 7.15326 24130 ft 440 kts 283°
2026-05-08 22:07 49.96288 7.10753 24131 ft 440 kts 283°
2026-05-08 22:07 49.96977 7.06121 24130 ft 440 kts 283°
2026-05-08 22:08 49.97665 7.01489 24128 ft 440 kts 283°
2026-05-08 22:08 49.98351 6.96854 24114 ft 440 kts 283°
2026-05-08 22:08 49.98936 6.92183 24105 ft 440 kts 277°
2026-05-08 22:08 49.99210 6.87448 24109 ft 440 kts 272°
2026-05-08 22:09 49.99154 6.82691 24110 ft 441 kts 267°
2026-05-08 22:09 49.98977 6.77930 24108 ft 441 kts 267°
2026-05-08 22:09 49.98811 6.73165 24112 ft 442 kts 267°
2026-05-08 22:09 49.98663 6.68392 24113 ft 443 kts 268°
2026-05-08 22:10 49.98522 6.63612 24113 ft 443 kts 267°
2026-05-08 22:10 49.98208 6.58850 24104 ft 444 kts 261°
2026-05-08 22:10 49.97521 6.54171 24099 ft 445 kts 255°
2026-05-08 22:10 49.96540 6.49618 24101 ft 445 kts 248°
2026-05-08 22:11 49.95300 6.45216 24099 ft 445 kts 246°
2026-05-08 22:11 49.94034 6.40831 24099 ft 445 kts 246°
2026-05-08 22:11 49.92780 6.36440 24108 ft 445 kts 247°
2026-05-08 22:11 49.91540 6.32035 24109 ft 446 kts 247°
2026-05-08 22:12 49.90301 6.27616 24119 ft 447 kts 247°
2026-05-08 22:12 49.89021 6.23228 24124 ft 447 kts 246°
2026-05-08 22:12 49.87729 6.18839 24120 ft 448 kts 247°
2026-05-08 22:12 49.86447 6.14446 24120 ft 448 kts 244°
2026-05-08 22:13 49.84923 6.10222 24118 ft 449 kts 238°
2026-05-08 22:13 49.83121 6.06274 24131 ft 449 kts 234°
2026-05-08 22:13 49.81274 6.02361 24131 ft 449 kts 235°
2026-05-08 22:13 49.79449 5.98445 24130 ft 449 kts 235°
2026-05-08 22:14 49.77638 5.94506 24123 ft 449 kts 236°
2026-05-08 22:14 49.75844 5.90551 24119 ft 448 kts 237°
2026-05-08 22:14 49.74269 5.86405 24116 ft 447 kts 244°
2026-05-08 22:14 49.72981 5.82105 24110 ft 447 kts 250°
2026-05-08 22:15 49.71933 5.77588 24118 ft 447 kts 252°
2026-05-08 22:15 49.70904 5.73053 24120 ft 448 kts 252°
2026-05-08 22:15 49.69866 5.68515 24114 ft 448 kts 252°
2026-05-08 22:15 49.68817 5.63985 24112 ft 449 kts 251°
2026-05-08 22:16 49.67756 5.59448 24113 ft 449 kts 251°
2026-05-08 22:16 49.66689 5.54908 24111 ft 450 kts 251°
2026-05-08 22:16 49.65619 5.50375 24109 ft 450 kts 251°
2026-05-08 22:16 49.64548 5.45845 24108 ft 450 kts 251°
2026-05-08 22:17 49.63476 5.41313 24107 ft 449 kts 251°
2026-05-08 22:17 49.62402 5.36787 24097 ft 450 kts 252°
2026-05-08 22:17 49.61388 5.32227 24127 ft 449 kts 254°
2026-05-08 22:17 49.60433 5.27643 24107 ft 449 kts 255°
2026-05-08 22:18 49.59689 5.22977 24107 ft 448 kts 262°
2026-05-08 22:18 49.59257 5.18240 24116 ft 446 kts 266°
2026-05-08 22:18 49.59100 5.13467 24102 ft 445 kts 272°
2026-05-08 22:18 49.59159 5.08703 24106 ft 445 kts 273°
2026-05-08 22:19 49.59236 5.03935 24098 ft 445 kts 273°
2026-05-08 22:19 49.59305 4.99161 24098 ft 445 kts 273°
2026-05-08 22:19 49.59361 4.94390 24099 ft 445 kts 273°
2026-05-08 22:19 49.59407 4.89625 24102 ft 445 kts 273°
2026-05-08 22:20 49.59449 4.84849 24109 ft 445 kts 273°
2026-05-08 22:20 49.59486 4.80075 24096 ft 446 kts 273°
2026-05-08 22:20 49.59520 4.75297 24106 ft 446 kts 273°
2026-05-08 22:20 49.59545 4.70520 24098 ft 446 kts 273°
2026-05-08 22:21 49.59563 4.65790 24082 ft 434 kts 273°
2026-05-08 22:21 49.59576 4.61241 24075 ft 416 kts 273°
2026-05-08 22:21 49.59589 4.56861 24081 ft 400 kts 273°
2026-05-08 22:21 49.59602 4.52626 24088 ft 395 kts 273°
2026-05-08 22:22 49.59616 4.48399 24110 ft 394 kts 273°
2026-05-08 22:22 49.59629 4.44163 24089 ft 395 kts 273°
2026-05-08 22:22 49.59641 4.39929 24095 ft 395 kts 273°
2026-05-08 22:22 49.59651 4.35695 24099 ft 395 kts 273°
2026-05-08 22:23 49.59658 4.31457 24097 ft 396 kts 273°
2026-05-08 22:23 49.59663 4.27217 24102 ft 396 kts 273°
2026-05-08 22:23 49.59666 4.22967 24103 ft 396 kts 273°
2026-05-08 22:23 49.59669 4.18721 24097 ft 396 kts 273°
2026-05-08 22:24 49.59670 4.14478 24097 ft 396 kts 273°
2026-05-08 22:24 49.59666 4.10235 24097 ft 394 kts 271°
2026-05-08 22:24 49.59255 4.06126 24096 ft 398 kts 253°
2026-05-08 22:24 49.57973 4.02339 24097 ft 401 kts 239°
2026-05-08 22:25 49.56404 3.98775 24104 ft 403 kts 239°
2026-05-08 22:25 49.54840 3.95173 24104 ft 406 kts 239°
2026-05-08 22:25 49.53283 3.91534 24095 ft 408 kts 239°
2026-05-08 22:25 49.51726 3.87864 24103 ft 410 kts 239°
2026-05-08 22:26 49.50170 3.84180 24103 ft 411 kts 239°
2026-05-08 22:26 49.48609 3.80489 24097 ft 412 kts 239°
2026-05-08 22:26 49.47186 3.76701 24072 ft 407 kts 251°
2026-05-08 22:26 49.46435 3.72555 24090 ft 399 kts 262°
2026-05-08 22:27 49.45869 3.68454 24083 ft 385 kts 260°
2026-05-08 22:27 49.45242 3.64524 24062 ft 372 kts 259°
2026-05-08 22:27 49.44603 3.60745 24067 ft 358 kts 259°
2026-05-08 22:27 49.43972 3.57060 24082 ft 358 kts 259°
2026-05-08 22:28 49.43343 3.53359 24083 ft 358 kts 259°
2026-05-08 22:28 49.42715 3.49674 24084 ft 357 kts 259°
2026-05-08 22:28 49.42085 3.45990 24094 ft 356 kts 258°
2026-05-08 22:28 49.41273 3.42394 24081 ft 358 kts 250°
2026-05-08 22:29 49.40213 3.38928 24085 ft 358 kts 247°
2026-05-08 22:29 49.39082 3.35526 24091 ft 358 kts 246°
2026-05-08 22:29 49.37939 3.32131 24080 ft 357 kts 246°
2026-05-08 22:29 49.36806 3.28730 23824 ft 360 kts 246°
2026-05-08 22:30 49.35672 3.25280 22998 ft 362 kts 246°
2026-05-08 22:30 49.34543 3.21806 21538 ft 368 kts 245°
2026-05-08 22:30 49.33390 3.18226 19791 ft 380 kts 244°
2026-05-08 22:30 49.32209 3.14551 18102 ft 387 kts 243°
2026-05-08 22:31 49.31012 3.10832 16287 ft 390 kts 243°
2026-05-08 22:31 49.29815 3.07110 14545 ft 389 kts 243°
2026-05-08 22:31 49.28626 3.03416 12789 ft 385 kts 244°
2026-05-08 22:31 49.27450 2.99761 11027 ft 379 kts 244°
2026-05-08 22:32 49.26297 2.96184 9486 ft 369 kts 243°
2026-05-08 22:32 49.25177 2.92712 7949 ft 359 kts 243°
2026-05-08 22:32 49.24085 2.89330 6514 ft 351 kts 243°
2026-05-08 22:32 49.23023 2.86044 5346 ft 338 kts 243°
2026-05-08 22:33 49.22009 2.82911 4557 ft 318 kts 242°
2026-05-08 22:33 49.21073 2.80023 4210 ft 288 kts 242°
2026-05-08 22:33 49.20220 2.77389 3984 ft 266 kts 242°
2026-05-08 22:33 49.19414 2.74913 3967 ft 261 kts 242°
2026-05-08 22:34 49.18599 2.72414 3952 ft 263 kts 242°
2026-05-08 22:34 49.17786 2.69921 3942 ft 261 kts 242°
2026-05-08 22:34 49.16978 2.67449 3938 ft 259 kts 242°
2026-05-08 22:34 49.16184 2.65015 3948 ft 259 kts 243°
2026-05-08 22:35 49.15367 2.62518 3951 ft 259 kts 242°
2026-05-08 22:35 49.14562 2.60054 3942 ft 259 kts 242°
2026-05-08 22:35 49.13755 2.57591 3948 ft 259 kts 242°
2026-05-08 22:35 49.12950 2.55131 3948 ft 259 kts 242°
2026-05-08 22:36 49.12143 2.52671 3944 ft 259 kts 242°
2026-05-08 22:36 49.11349 2.50251 3952 ft 259 kts 242°
2026-05-08 22:36 49.10541 2.47793 3946 ft 259 kts 242°
2026-05-08 22:36 49.09732 2.45332 3943 ft 259 kts 242°
2026-05-08 22:37 49.08923 2.42875 3949 ft 259 kts 242°
2026-05-08 22:37 49.08120 2.40433 3936 ft 253 kts 242°
2026-05-08 22:37 49.07368 2.38149 3905 ft 228 kts 242°
2026-05-08 22:37 49.06685 2.36080 3905 ft 214 kts 242°
2026-05-08 22:38 49.06027 2.34090 3930 ft 204 kts 242°
2026-05-08 22:38 49.05400 2.32195 3929 ft 201 kts 242°
2026-05-08 22:38 49.04636 2.30418 3931 ft 193 kts 216°
2026-05-08 22:38 49.03469 2.29770 3935 ft 174 kts 172°
2026-05-08 22:39 49.02436 2.30497 3949 ft 171 kts 127°
2026-05-08 22:39 49.01991 2.32073 3956 ft 153 kts 101°
2026-05-08 22:39 49.01797 2.33624 3824 ft 148 kts 99°
2026-05-08 22:39 49.01670 2.35185 3392 ft 150 kts 94°
2026-05-08 22:40 49.01637 2.36697 3098 ft 123 kts 86°
2026-05-08 22:40 49.01756 2.38140 2937 ft 142 kts 83°
2026-05-08 22:40 49.01821 2.39679 2604 ft 150 kts 88°
2026-05-08 22:40 49.01889 2.41323 1900 ft 157 kts 85°
2026-05-08 22:41 49.01979 2.42920 1475 ft 144 kts 85°
2026-05-08 22:41 49.02048 2.44394 1279 ft 138 kts 85°
2026-05-08 22:41 49.02117 2.45836 1069 ft 138 kts 85°
2026-05-08 22:41 49.02198 2.47299 1025 ft 142 kts 83°
2026-05-08 22:42 49.02288 2.48838 886 ft 147 kts 83°
2026-05-08 22:42 49.02360 2.50388 645 ft 145 kts 82°
2026-05-08 22:42 49.02435 2.51894 475 ft 143 kts 83°
2026-05-08 22:42 49.02521 2.53384 374 ft 136 kts 83°
2026-05-08 22:43 49.02591 2.54654 359 ft 97 kts 85°
2026-05-08 22:43 49.02629 2.55397 361 ft 44 kts 85°
2026-05-08 22:43 49.02636 2.55595 361 ft 6 kts 91°
2026-05-08 22:43 49.02632 2.55740 361 ft 22 kts 97°
2026-05-08 22:44 49.02559 2.55919 363 ft 11 kts 153°
2026-05-08 22:44 49.02541 2.55929 365 ft 0 kts 162°
2026-05-08 22:44 49.02502 2.55945 366 ft 14 kts 167°
2026-05-08 22:45 49.02350 2.55961 362 ft 28 kts 175°
2026-05-08 22:45 49.02195 2.55981 363 ft 18 kts 175°
2026-05-08 22:45 49.02086 2.55832 362 ft 31 kts 268°
2026-05-08 22:45 49.02064 2.55514 365 ft 28 kts 264°
2026-05-08 22:46 49.02049 2.55263 359 ft 9 kts 267°
2026-05-08 22:46 49.02049 2.55242 359 ft 0 kts 268°
2026-05-08 22:46 49.02048 2.55232 359 ft 2 kts 268°
2026-05-08 22:46 49.02047 2.55184 359 ft 6 kts 267°
2026-05-08 22:47 49.02034 2.55116 363 ft 8 kts 239°
2026-05-08 22:47 49.01987 2.55084 365 ft 8 kts 181°
2026-05-08 22:47 49.01950 2.55091 363 ft 8 kts 171°
2026-05-08 22:47 49.01891 2.55109 360 ft 9 kts 167°
2026-05-08 22:48 49.01816 2.55131 360 ft 12 kts 172°
2026-05-08 22:48 49.01733 2.55144 360 ft 12 kts 176°
2026-05-08 22:48 49.01621 2.55156 361 ft 12 kts 176°
2026-05-08 22:48 49.01564 2.55162 364 ft 12 kts 176°
2026-05-08 22:49 49.01452 2.55179 361 ft 12 kts 171°
2026-05-08 22:49 49.01315 2.55215 364 ft 12 kts 182°
2026-05-08 22:49 49.01254 2.55277 364 ft 7 kts 106°
2026-05-08 22:50 49.01253 2.55308 365 ft 0 kts 90°
2026-05-08 22:50 49.01253 2.55314 365 ft 1 kts 91°
2026-05-08 22:50 49.01253 2.55344 365 ft 9 kts 91°
2026-05-08 22:51 49.01253 2.55358 365 ft 1 kts 90°
2026-05-08 22:51 49.01255 2.55393 365 ft 7 kts 84°
2026-05-08 22:51 49.01215 2.55429 364 ft 8 kts 182°
2026-05-08 22:51 49.01178 2.55430 365 ft 0 kts 175°